Date String (YYYY-MM-DD hh:mm:ss) UTC,Instrument flags,absolute air pressure of the measurement (hPa),sample flow rate (lpm),inlet stack bypass flow (lpm),air temperature of the measurement (°C),ambient temperature measured by the external sensor (°C),aerosol sample conditioner tube jacket temperature (°C),OPC LED temperature (°C),internal box temperature (°C),relative humidity of the measurement (%),span deviation,mass concentration of particles derived from Lorenz-Mie calculation of OPC scattering (μg/m³),mass concentration of particles derived from Lorenz-Mie calculation of OPC scattering (μg/m³),mass concentration of particles derived from Lorenz-Mie calculation of OPC scattering (μg/m³)
DateTimeUTC,F1_M11,P_M11,Q1_M11,Q2_M11,T1_M11,T2_M11,T3_M11,T4_M11,T5_M11,U1_M11,ZSPAN_M11,X0_M11,X2_M11,X1_M11
2024-04-16 06:00:00,SystemResetWarning,0816.1,5.00,000.00,023.0,022.3,000.0,031.4,024.9,012.9,0000.0,0002.65,0000.33,0000.19
2024-04-16 06:01:00,SystemResetWarning,0816.1,5.00,000.00,023.0,022.3,000.0,031.4,024.9,012.9,0000.0,0002.70,0000.35,0000.19
2024-04-16 06:02:00,SystemResetWarning,0816.1,5.00,000.00,023.0,022.4,000.0,031.4,024.9,012.9,0000.0,0002.48,0000.37,0000.19
2024-04-16 06:03:00,SystemResetWarning,0816.1,5.00,000.00,023.0,022.4,000.0,031.4,024.9,012.9,0000.0,0002.38,0000.36,0000.18
2024-04-16 06:04:00,SystemResetWarning,0816.1,5.00,000.00,023.0,022.4,000.0,031.4,024.9,013.0,0000.0,0002.18,0000.36,0000.19
2024-04-16 06:05:00,SystemResetWarning,0815.9,5.00,000.00,023.0,022.4,000.0,031.4,024.9,013.0,0000.0,0002.14,0000.36,0000.19
2024-04-16 06:06:00,SystemResetWarning,0816.0,5.00,000.00,023.0,022.4,000.0,031.4,024.9,013.1,0000.0,0000.95,0000.38,0000.20
2024-04-16 06:07:00,SystemResetWarning,0815.9,5.00,000.00,023.0,022.3,000.0,031.4,024.9,013.2,0000.0,0000.91,0000.41,0000.22
2024-04-16 06:08:00,SystemResetWarning,0815.9,5.00,000.00,023.0,022.3,000.0,031.4,024.9,013.1,0000.0,0000.78,0000.42,0000.22
2024-04-16 06:09:00,SystemResetWarning,0815.9,5.00,000.00,023.0,022.3,000.0,031.4,024.8,013.2,0000.0,0000.72,0000.40,0000.22
2024-04-16 06:10:00,SystemResetWarning,0815.9,5.00,000.00,023.0,022.3,000.0,031.4,024.8,013.2,0000.0,0000.71,0000.40,0000.23
2024-04-16 06:11:00,SystemResetWarning,0815.9,5.00,000.00,023.0,022.3,000.0,031.4,024.8,013.3,0000.0,0000.73,0000.42,0000.23
2024-04-16 06:12:00,SystemResetWarning,0815.9,5.01,000.00,023.0,022.3,000.0,031.4,024.8,013.3,0000.0,0000.72,0000.41,0000.23
2024-04-16 06:13:00,SystemResetWarning,0815.9,5.00,000.00,023.0,022.2,000.0,031.4,024.8,013.3,0000.0,0000.64,0000.38,0000.23
2024-04-16 06:14:00,SystemResetWarning,0815.8,5.00,000.00,023.0,022.2,000.0,031.4,024.8,013.3,0000.0,0000.62,0000.38,0000.23
2024-04-16 06:15:00,SystemResetWarning,0815.9,4.99,000.00,023.0,022.2,000.0,031.4,024.8,013.2,0000.0,0000.60,0000.37,0000.23
2024-04-16 06:16:00,SystemResetWarning,0815.9,4.99,000.00,023.0,022.2,000.0,031.4,024.8,013.2,0000.0,0000.68,0000.36,0000.22
2024-04-16 06:17:00,SystemResetWarning,0815.9,5.00,000.00,023.0,022.2,000.0,031.4,024.8,013.3,0000.0,0000.85,0000.38,0000.22
2024-04-16 06:18:00,SystemResetWarning,0815.9,5.00,000.00,023.0,022.2,000.0,031.4,024.8,013.3,0000.0,0000.79,0000.35,0000.21
2024-04-16 06:19:00,SystemResetWarning,0816.0,5.01,000.00,023.0,022.2,000.0,031.4,024.8,013.3,0000.0,0000.74,0000.32,0000.21
2024-04-16 06:20:00,SystemResetWarning,0816.1,5.01,000.00,023.0,022.2,000.0,031.4,024.8,013.3,0000.0,0001.24,0000.32,0000.20
2024-04-16 06:21:00,SystemResetWarning,0816.2,5.00,000.00,023.0,022.1,000.0,031.4,024.7,013.2,0000.0,0002.12,0000.31,0000.20
2024-04-16 06:22:00,SystemResetWarning,0816.1,4.99,000.00,023.0,022.1,000.0,031.4,024.8,013.2,0000.0,0002.11,0000.30,0000.19
2024-04-16 06:23:00,SystemResetWarning,0816.0,4.99,000.00,023.0,022.2,000.0,031.4,024.8,013.2,0000.0,0002.09,0000.29,0000.19
2024-04-16 06:24:00,SystemResetWarning,0816.0,5.00,000.00,023.0,022.2,000.0,031.4,024.8,013.3,0000.0,0002.12,0000.30,0000.19
2024-04-16 06:25:00,SystemResetWarning,0816.0,4.99,000.00,023.0,022.2,000.0,031.4,024.8,013.3,0000.0,0002.12,0000.30,0000.19
2024-04-16 06:26:00,SystemResetWarning,0815.8,5.01,000.00,023.0,022.2,000.0,031.4,024.7,013.3,0000.0,0002.12,0000.30,0000.19
2024-04-16 06:27:00,SystemResetWarning,0815.8,5.01,000.00,023.0,022.2,000.0,031.4,024.8,013.4,0000.0,0002.06,0000.30,0000.19
2024-04-16 06:28:00,SystemResetWarning,0815.8,5.00,000.00,023.0,022.2,000.0,031.4,024.7,013.4,0000.0,0001.89,0000.28,0000.18
2024-04-16 06:29:00,SystemResetWarning,0815.7,5.00,000.00,023.0,022.1,000.0,031.4,024.8,013.4,0000.0,0001.86,0000.26,0000.18
2024-04-16 06:30:00,SystemResetWarning,0815.8,4.99,000.00,023.0,022.1,000.0,031.4,024.8,013.4,0000.0,0001.86,0000.27,0000.19
2024-04-16 06:31:00,SystemResetWarning,0815.9,5.00,000.00,023.0,022.1,000.0,031.4,024.7,013.5,0000.0,0001.51,0000.25,0000.18
2024-04-16 06:32:00,SystemResetWarning,0815.9,5.00,000.00,023.0,022.1,000.0,031.4,024.7,013.5,0000.0,0000.41,0000.25,0000.19
2024-04-16 06:33:00,SystemResetWarning,0815.8,5.00,000.00,023.0,022.1,000.0,031.4,024.8,013.4,0000.0,0000.37,0000.24,0000.19
2024-04-16 06:34:00,SystemResetWarning,0815.8,5.01,000.00,023.0,022.2,000.0,031.4,024.8,013.4,0000.0,0000.40,0000.25,0000.19
2024-04-16 06:35:00,SystemResetWarning,0815.8,5.02,000.00,023.0,022.2,000.0,031.4,024.8,013.4,0000.0,0000.36,0000.23,0000.19
2024-04-16 06:36:00,SystemResetWarning,0815.7,5.00,000.00,023.0,022.2,000.0,031.4,024.8,013.4,0000.0,0000.38,0000.24,0000.19
2024-04-16 06:37:00,SystemResetWarning,0815.7,5.00,000.00,023.0,022.2,000.0,031.4,024.8,013.4,0000.0,0000.50,0000.28,0000.19
2024-04-16 06:38:00,SystemResetWarning,0815.7,5.00,000.00,023.0,022.2,000.0,031.4,024.8,013.5,0000.0,0000.59,0000.30,0000.20
2024-04-16 06:39:00,SystemResetWarning,0815.7,5.00,000.00,023.0,022.2,000.0,031.4,024.8,013.4,0000.0,0000.62,0000.31,0000.20
2024-04-16 06:40:00,SystemResetWarning,0815.6,4.99,000.00,023.0,022.3,000.0,031.4,024.8,013.4,0000.0,0000.65,0000.33,0000.21
2024-04-16 06:41:00,SystemResetWarning,0815.6,5.00,000.00,023.0,022.2,000.0,031.4,024.8,013.5,0000.0,0000.65,0000.33,0000.21
2024-04-16 06:42:00,SystemResetWarning,0815.6,5.00,000.00,023.0,022.2,000.0,031.4,024.8,013.5,0000.0,0000.81,0000.40,0000.22
2024-04-16 06:43:00,SystemResetWarning,0815.6,5.00,000.00,023.0,022.2,000.0,031.4,024.8,013.5,0000.0,0000.87,0000.44,0000.23
2024-04-16 06:44:00,SystemResetWarning,0815.6,5.00,000.00,023.0,022.2,000.0,031.4,024.8,013.5,0000.0,0000.93,0000.46,0000.23
2024-04-16 06:45:00,SystemResetWarning,0815.6,5.01,000.00,023.0,022.2,000.0,031.4,024.8,013.5,0000.0,0000.96,0000.49,0000.24
2024-04-16 06:46:00,SystemResetWarning,0815.6,5.01,000.00,023.0,022.2,000.0,031.4,024.8,013.5,0000.0,0001.10,0000.53,0000.24
2024-04-16 06:47:00,SystemResetWarning,0815.6,5.00,000.00,023.0,022.2,000.0,031.4,024.7,013.5,0000.0,0001.13,0000.53,0000.25
2024-04-16 06:48:00,SystemResetWarning,0815.6,5.00,000.00,023.0,022.2,000.0,031.4,024.7,013.6,0000.0,0001.24,0000.51,0000.25
2024-04-16 06:49:00,SystemResetWarning,0815.6,4.99,000.00,023.0,022.1,000.0,031.4,024.7,013.6,0000.0,0001.30,0000.50,0000.26
2024-04-16 06:50:00,SystemResetWarning,0815.6,4.99,000.00,023.0,022.1,000.0,031.4,024.7,013.6,0000.0,0001.39,0000.52,0000.26
2024-04-16 06:51:00,SystemResetWarning,0815.6,5.00,000.00,023.0,022.1,000.0,031.4,024.7,013.6,0000.0,0001.73,0000.54,0000.26
2024-04-16 06:52:00,SystemResetWarning,0815.6,5.00,000.00,023.0,022.1,000.0,031.4,024.7,013.6,0000.0,0002.51,0000.56,0000.27
2024-04-16 06:53:00,SystemResetWarning,0815.6,5.01,000.00,023.0,022.1,000.0,031.4,024.7,013.6,0000.0,0002.42,0000.53,0000.27
2024-04-16 06:54:00,SystemResetWarning,0815.6,4.99,000.00,023.0,022.1,000.0,031.4,024.7,013.6,0000.0,0002.39,0000.51,0000.27
2024-04-16 06:55:00,SystemResetWarning,0815.5,4.99,000.00,023.0,022.2,000.0,031.4,024.7,013.6,0000.0,0002.43,0000.52,0000.26
2024-04-16 06:56:00,SystemResetWarning,0815.5,5.00,000.00,023.0,022.2,000.0,031.4,024.7,013.7,0000.0,0002.38,0000.49,0000.26
2024-04-16 06:57:00,SystemResetWarning,0815.5,5.01,000.00,023.0,022.1,000.0,031.4,024.7,013.7,0000.0,0003.02,0000.46,0000.26
2024-04-16 06:58:00,SystemResetWarning,0815.5,5.01,000.00,023.0,022.1,000.0,031.4,024.7,013.7,0000.0,0003.42,0000.46,0000.27
2024-04-16 06:59:00,SystemResetWarning,0815.4,5.01,000.00,023.0,022.1,000.0,031.4,024.7,013.7,0000.0,0003.23,0000.47,0000.28
